K7OLI-13 Weather Reports


time (UTC)temp
C
wind
direction
speed
KPH
gust
KPH
rain 1hr
cm
rain 24hr
cm
rain mn
cm
humidity
%
barometer
mb
20260831183019 22 98 4.8 8.0 0.00 0.00 0.00 57
20260831182027 21 265 4.8 8.0 0.00 0.00 0.00 58
20260831181035 21 222 3.2 6.4 0.00 0.00 0.00 58
20260831180026 22 191 3.2 6.4 0.00 0.00 0.00 55
20260831175034 22 108 3.2 4.8 0.00 0.00 0.00 56
20260831174022 22 52 4.8 8.0 0.00 0.00 0.00 57
20260831173030 21 120 3.2 4.8 0.00 0.00 0.00 58
20260831172020 20 238 3.2 4.8 0.00 0.00 0.00 62
20260831171027 20 7 4.8 6.4 0.00 0.00 0.00 63
20260831170037 21 39 3.2 4.8 0.00 0.00 0.00 61
20260831165026 20 100 3.2 4.8 0.00 0.00 0.00 63
20260831164032 19 45 4.8 6.4 0.00 0.00 0.00 66
20260831163022 18 24 4.8 6.4 0.00 0.00 0.00 68
20260831162050 18 85 3.2 4.8 0.00 0.00 0.00 70
20260831161020 17 69 3.2 4.8 0.00 0.00 0.00 74
20260831160027 17 24 4.8 6.4 0.00 0.00 0.00 73
20260831155055 17 9 3.2 4.8 0.00 0.00 0.00 75
20260831154025 17 26 1.6 3.2 0.00 0.00 0.00 76
20260831153033 16 28 0.0 3.2 0.00 0.00 0.00 79
20260831152022 16 19 4.8 6.4 0.00 0.00 0.00 80
20260831151051 15 313 1.6 3.2 0.00 0.00 0.00 82
20260831150020 15 0.0 0.0 0.00 0.00 0.00 85
20260831145028 13 0.0 0.0 0.00 0.00 0.00 87
20260831144054 13 0.0 0.0 0.00 0.00 0.00 89
20260831143025 12 0.0 0.0 0.00 0.00 0.00 93
20260831142033 12 0.0 0.0 0.00 0.00 0.00 94
20260831141023 11 0.0 0.0 0.00 0.00 0.00 95
20260831140031 11 0.0 0.0 0.00 0.00 0.00 96
20260831135020 11 0.0 0.0 0.00 0.00 0.00 97
20260831134048 11 0.0 0.0 0.00 0.00 0.00 97
20260831133036 11 0.0 0.0 0.00 0.00 0.00 97
20260831132026 11 0.0 0.0 0.00 0.00 0.00 97
20260831131054 11 0.0 0.0 0.00 0.00 0.00 97
20260831130026 11 0.0 0.0 0.00 0.00 0.00 97
20260831125034 11 0.0 0.0 0.00 0.00 0.00 96
20260831124021 11 0.0 0.0 0.00 0.00 0.00 95
20260831123049 11 0.0 0.0 0.00 0.00 0.00 95
20260831122037 11 0.0 0.0 0.00 0.00 0.00 95
20260831121026 11 0.0 0.0 0.00 0.00 0.00 95
20260831120034 11 0.0 0.0 0.00 0.00 0.00 95
20260831115026 11 0.0 0.0 0.00 0.00 0.00 95
20260831114052 12 0.0 0.0 0.00 0.00 0.00 95
20260831113021 12 0.0 0.0 0.00 0.00 0.00 95
20260831112030 11 0.0 0.0 0.00 0.00 0.00 95
20260831111037 11 0.0 0.0 0.00 0.00 0.00 93
20260831110027 12 293 0.0 3.2 0.00 0.00 0.00 93
20260831105035 12 0.0 0.0 0.00 0.00 0.00 93
20260831104024 12 270 0.0 3.2 0.00 0.00 0.00 92
20260831103032 12 0.0 0.0 0.00 0.00 0.00 91
20260831102021 12 293 0.0 3.2 0.00 0.00 0.00 91
20260831101030 12 293 0.0 3.2 0.00 0.00 0.00 91
20260831100019 12 270 1.6 3.2 0.00 0.00 0.00 91
20260831095027 12 248 1.6 3.2 0.00 0.00 0.00 91
20260831094035 12 45 0.0 1.6 0.00 0.00 0.00 90
20260831093024 12 0.0 0.0 0.00 0.00 0.00 89
20260831092053 13 270 0.0 1.6 0.00 0.00 0.00 88
20260831091102 13 268 1.6 3.2 0.00 0.00 0.00 88
20260831090110 13 240 1.6 3.2 0.00 0.00 0.00 88
20260831085019 13 0.0 0.0 0.00 0.00 0.00 88
20260831084029 13 0.0 0.0 0.00 0.00 0.00 87
20260831083036 13 0.0 0.0 0.00 0.00 0.00 86
20260831082025 13 0.0 0.0 0.00 0.00 0.00 85
20260831081034 13 0.0 0.0 0.00 0.00 0.00 84
20260831080022 13 0.0 0.0 0.00 0.00 0.00 83
20260831075051 14 284 1.6 3.2 0.00 0.00 0.00 82
20260831074020 14 256 1.6 3.2 0.00 0.00 0.00 81
20260831073028 15 256 1.6 3.2 0.00 0.00 0.00 81
20260831072055 15 283 1.6 4.8 0.00 0.00 0.00 81
20260831071027 15 0.0 0.0 0.00 0.00 0.00 80
20260831070034 15 293 0.0 1.6 0.00 0.00 0.00 80
20260831065023 15 0.0 0.0 0.00 0.00 0.00 79
20260831064031 15 0.0 0.0 0.00 0.00 0.00 78
20260831063040 15 14 0.0 1.6 0.00 0.00 0.00 77
20260831062028 15 326 1.6 1.6 0.00 0.00 0.00 75
20260831061059 15 0.0 0.0 0.00 0.00 0.00 75
20260831060026 16 273 0.0 3.2 0.00 0.00 0.00 74
20260831055035 16 273 1.6 3.2 0.00 0.00 0.00 71
20260831054023 16 283 3.2 6.4 0.00 0.00 0.00 70
20260831053031 17 277 3.2 4.8 0.00 0.00 0.00 69
20260831052020 17 297 3.2 6.4 0.00 0.00 0.00 68
20260831051029 17 276 1.6 4.8 0.00 0.00 0.00 67
20260831050036 17 291 4.8 8.0 0.00 0.00 0.00 66
20260831045027 18 289 4.8 9.7 0.00 0.00 0.00 65
20260831044114 18 335 4.8 9.7 0.00 0.00 0.00 63
20260831043024 18 290 4.8 8.0 0.00 0.00 0.00 63
20260831042031 18 314 4.8 9.7 0.00 0.00 0.00 62
20260831041041 18 328 3.2 4.8 0.00 0.00 0.00 61
20260831040029 18 339 3.2 6.4 0.00 0.00 0.00 60
20260831035037 19 298 4.8 6.4 0.00 0.00 0.00 59
20260831034026 19 346 4.8 6.4 0.00 0.00 0.00 57
20260831033034 20 304 6.4 12.9 0.00 0.00 0.00 56
20260831032024 20 28 8.0 14.5 0.00 0.00 0.00 56
20260831031031 20 12 9.7 11.3 0.00 0.00 0.00 55
20260831030021 21 11 6.4 11.3 0.00 0.00 0.00 55
20260831025029 21 26 9.7 14.5 0.00 0.00 0.00 54
20260831024037 21 350 9.7 16.1 0.00 0.00 0.00 53
20260831023026 22 356 9.7 14.5 0.00 0.00 0.00 53
20260831022054 22 43 8.0 12.9 0.00 0.00 0.00 52
20260831021043 22 355 8.0 12.9 0.00 0.00 0.00 51
20260831020031 22 359 11.3 19.3 0.00 0.00 0.00 51
20260831015021 23 343 9.7 16.1 0.00 0.00 0.00 50
20260831014028 23 357 9.7 11.3 0.00 0.00 0.00 50
20260831013036 23 346 9.7 16.1 0.00 0.00 0.00 49
20260831012025 23 359 9.7 11.3 0.00 0.00 0.00 49
20260831011034 23 316 8.0 11.3 0.00 0.00 0.00 48
20260831010023 23 323 11.3 19.3 0.00 0.00 0.00 48
20260831005030 23 7 9.7 14.5 0.00 0.00 0.00 47
20260831004020 23 287 8.0 20.9 0.00 0.00 0.00 47
20260831003027 23 337 11.3 16.1 0.00 0.00 0.00 47
20260831002038 24 314 11.3 17.7 0.00 0.00 0.00 47
20260831001046 23 302 9.7 16.1 0.00 0.00 0.00 47
20260831000035 23 309 9.7 17.7 0.00 0.00 0.00 47
20260830235042 24 274 9.7 14.5 0.00 0.00 0.00 46
20260830234030 24 340 8.0 14.5 0.00 0.00 0.00 45
20260830233020 24 260 8.0 14.5 0.00 0.00 0.00 45
20260830232027 24 297 8.0 16.1 0.00 0.00 0.00 45
20260830231035 23 27 14.5 20.9 0.00 0.00 0.00 45
20260830230026 23 323 11.3 17.7 0.00 0.00 0.00 46
20260830225032 23 276 6.4 11.3 0.00 0.00 0.00 45
20260830224021 24 13 11.3 17.7 0.00 0.00 0.00 43
20260830223029 24 333 9.7 12.9 0.00 0.00 0.00 43
20260830222037 24 250 8.0 14.5 0.00 0.00 0.00 44
20260830221045 23 2 9.7 17.7 0.00 0.00 0.00 44
20260830220053 23 251 11.3 17.7 0.00 0.00 0.00 44
20260830215027 23 283 8.0 12.9 0.00 0.00 0.00 44
20260830214031 23 276 9.7 14.5 0.00 0.00 0.00 45
20260830213020 23 345 8.0 12.9 0.00 0.00 0.00 45
20260830212033 23 319 11.3 16.1 0.00 0.00 0.00 46
20260830211036 23 31 8.0 14.5 0.00 0.00 0.00 45
20260830210027 23 302 12.9 16.1 0.00 0.00 0.00 45
20260830205033 23 274 8.0 14.5 0.00 0.00 0.00 45
20260830204022 23 279 9.7 14.5 0.00 0.00 0.00 46
20260830203049 22 254 8.0 14.5 0.00 0.00 0.00 46
20260830202020 22 255 12.9 20.9 0.00 0.00 0.00 48
20260830201028 22 263 8.0 12.9 0.00 0.00 0.00 48
20260830200036 22 260 9.7 14.5 0.00 0.00 0.00 49
20260830195027 21 245 8.0 12.9 0.00 0.00 0.00 50
20260830194033 21 348 9.7 19.3 0.00 0.00 0.00 50
20260830193022 21 305 9.7 14.5 0.00 0.00 0.00 50
20260830192030 21 252 8.0 14.5 0.00 0.00 0.00 52
20260830191020 21 252 8.0 16.1 0.00 0.00 0.00 52
20260830190027 21 274 8.0 11.3 0.00 0.00 0.00 52
20260830185036 21 264 4.8 9.7 0.00 0.00 0.00 53
20260830184025 20 342 9.7 16.1 0.00 0.00 0.00 53